Vertical_Velocity
-3 -3 -1 0 0 2 1 0 -1 -1 -2 -1 -2 -2 -5 1 0 0 1 -1 2 2 2 3 3 2 1 3 6 3 1 0 1 3 -0 -4 -1 -1 -1 1 -2 -3 4
2 -3 -0 2 1 2 1 0 1 2 4 4 2 0 -2 -3 -3 2 2 3 2 4 4 1 -0 2 2 1 2 7 3 3 2 5 4 -7 -10 -7 -5 0 -1 -5 0
0 -0 -1 -1 0 0 0 0 1 1 -1 -2 -0 1 2 2 2 3 3 4 1 3 1 2 -1 1 0 -0 3 1 4 1 1 1 15 2 -5 1 -3 -2 0 2 1
-0 -1 -1 -0 -1 -0 2 2 0 -2 -0 2 3 3 1 -1 -0 -1 -2 0 1 1 -1 -1 1 1 0 -3 -1 2 1 4 0 1 -0 4 5 2 -7 -4 5 0 -6
-2 -2 -0 1 0 -0 -0 -0 0 2 1 -2 -2 -2 -0 1 1 1 -0 -1 2 -2 0 0 -0 2 4 2 0 1 2 3 2 2 2 3 5 2 7 -4 -8 -6 -6
-0 2 2 2 1 1 -0 -2 -2 -1 -1 0 -1 -0 0 1 0 0 1 2 2 -0 -1 -0 -0 -1 -2 -1 0 0 -1 0 1 2 2 2 3 -4 1 -0 -6 -2 -9
1 -0 -2 -2 -1 -1 -0 0 -0 0 0 1 1 2 2 1 -0 -0 -2 -1 -1 -0 -0 1 1 1 1 2 1 1 1 2 -0 2 1 0 -0 3 5 8 1 2 -3
0 -1 -1 -1 -0 0 -1 -1 0 -0 -1 -1 -1 -0 -0 -1 -0 -0 0 -1 0 -1 1 2 0 1 1 2 3 2 0 -0 -1 -1 1 1 -3 -2 -1 6 8 1 -5
0 -0 -0 1 0 0 0 0 -0 -1 -1 -1 -1 -1 -1 -0 -1 -1 -2 -2 -1 -1 0 0 1 1 1 1 2 2 1 2 3 2 1 0 1 0 1 2 3 6 2
2 -0 1 0 -0 -1 -1 -1 -1 -2 -2 -1 -1 -0 -1 -0 -0 -1 -1 0 -0 0 -2 -1 -1 -0 0 1 2 2 1 1 0 1 2 -0 -1 1 -0 -1 -1 -3 6
-1 -0 0 -1 -0 -1 -0 -1 -1 -1 -1 -0 -1 -1 0 0 -0 0 0 1 1 0 0 -1 -0 -0 -1 -1 -1 -1 1 1 1 0 2 0 2 -1 -2 -2 2 1 1
-0 -1 1 0 -1 -1 -1 -1 -1 -1 -2 -0 1 1 0 -0 -1 -1 0 1 1 1 -1 -1 -1 -1 -1 1 -0 0 1 1 -0 1 0 -0 -2 -1 -1 -2 -2 -0 -3
0 -0 -1 -1 -1 -1 -1 -1 -1 -1 -1 -1 -1 -0 -0 -1 -1 -0 0 0 0 0 -0 -2 -1 -2 -1 1 0 -0 2 -2 1 -4 -3 -1 2 -1 -1 -2 -1 -1 -4
-1 -0 1 1 1 1 2 -0 0 -1 -2 1 1 -1 -1 -0 1 -0 1 -0 0 1 1 0 0 -1 -0 1 1 -1 3 5 -1 -3 -2 -1 -0 -1 -1 -1 1 -2 -4
-2 -1 -1 1 1 1 0 -2 -0 1 0 -2 -1 -0 -1 -0 -1 -1 -2 1 0 0 1 -0 0 -1 0 -0 -1 1 3 0 -2 -1 0 -1 -1 -1 -1 2 2 -0 -1
-0 1 1 0 -1 -1 1 0 -0 1 0 -0 -0 1 -0 0 -0 1 -0 1 -0 -1 0 -0 1 -0 -0 -0 -0 1 2 -0 -1 0 -2 -2 -1 -1 -0 1 2 -2 0
-1 -3 -1 1 1 -0 1 0 0 1 1 0 0 0 0 -0 2 -1 -1 -0 -2 -0 1 0 -2 -0 -2 -1 1 1 0 -1 -1 -1 -3 -1 -1 -3 -2 2 -1 -2 -1
-1 -0 0 -0 -0 0 -2 -0 1 2 -0 -1 -1 -1 0 0 1 -1 0 -1 -0 1 1 -1 -1 -2 -1 -0 1 0 -1 0 -1 -2 -2 0 -2 -4 1 -0 -0 -0 -0
1 1 0 -3 -1 1 0 -1 1 1 1 -1 -0 1 1 -0 -2 -1 1 0 -0 0 0 -2 -1 1 1 1 -0 -1 -1 -1 -2 -3 -1 -2 -2 -2 -3 -0 0 -0 -0
-1 -1 0 -1 0 1 -1 -0 1 1 2 0 -1 -1 -1 -0 -1 2 0 -1 0 -0 -2 -2 0 -0 0 -1 -0 0 -1 -2 -3 -2 -3 -1 -1 -1 -1 0 0 1 0
1 1 1 1 0 0 -0 1 0 -2 0 -2 -0 -1 -2 0 1 1 2 -1 -1 -1 -0 -2 -2 -2 -3 -1 0 -0 -1 -1 -3 -2 -2 1 0 -2 -2 -2 -1 -1 -1
-0 1 0 -1 -2 -1 1 -1 -2 -1 -1 2 -0 -1 -0 -3 -1 1 0 1 -1 -1 1 3 1 -1 -1 -1 -1 -0 -1 -3 -3 -2 -2 -2 -2 -2 -1 -2 -1 -1 -1
1 0 1 1 -0 -1 -2 -1 -1 -1 -0 -2 2 -2 -4 1 1 -3 2 -0 -1 -0 2 -1 -1 2 1 -1 -2 -2 -1 -1 -1 -1 -3 -3 -2 -2 -2 -3 -1 -1 -0
0 1 0 -0 -0 1 -1 -1 -2 -1 -1 0 -0 -1 -1 -1 -2 -1 0 0 -2 0 -0 0 -0 -1 -1 -0 -0 -0 1 0 -0 -1 -1 -2 -1 -2 -2 -1 -1 -1 -1
-1 -1 -1 -0 -0 -2 -1 -1 1 -1 -1 0 -2 1 1 -1 -2 2 1 -0 -0 1 -2 1 1 0 -1 -2 -1 0 1 0 -1 -2 -1 -0 -0 -1 -0 -1 -1 -0 0
0 -2 -0 -1 -0 0 1 -0 0 0 -1 1 -3 1 1 -3 0 2 0 -0 0 -1 -0 2 3 0 -1 -1 -0 0 0 1 0 -1 -1 -1 -1 -1 -1 -1 -1 -0 -0
Height
1520 1522 1524 1526 1528 1529 1531 1533 1535 1536 1538 1538 1539 1540 1541 1542 1543 1544 1545 1546 1547 1547 1547 1547 1548 1548 1548 1548 1549 1548 1548 1547 1548 1546 1544 1543 1544 1544 1544 1545 1544 1544 1543
1515 1518 1521 1522 1525 1526 1528 1530 1531 1533 1534 1535 1536 1537 1538 1538 1539 1540 1541 1542 1541 1542 1542 1543 1543 1544 1543 1543 1543 1542 1542 1542 1543 1542 1541 1537 1536 1536 1537 1538 1537 1537 1537
1512 1515 1519 1521 1522 1524 1525 1526 1528 1529 1530 1531 1532 1532 1532 1533 1534 1536 1536 1537 1536 1537 1536 1537 1537 1538 1537 1537 1537 1537 1537 1536 1536 1536 1537 1534 1530 1529 1530 1531 1531 1531 1530
1509 1513 1515 1517 1520 1521 1523 1524 1524 1525 1526 1527 1527 1528 1528 1529 1529 1530 1530 1531 1531 1531 1530 1531 1531 1531 1531 1531 1531 1531 1530 1531 1530 1530 1530 1529 1527 1525 1521 1524 1524 1525 1525
1506 1509 1512 1515 1517 1519 1520 1521 1521 1521 1521 1521 1522 1522 1523 1523 1523 1524 1524 1525 1525 1524 1524 1524 1524 1525 1525 1525 1526 1526 1526 1525 1524 1523 1523 1523 1523 1522 1521 1515 1517 1518 1519
1502 1507 1510 1512 1514 1516 1517 1517 1518 1519 1519 1519 1519 1520 1520 1520 1519 1519 1519 1519 1518 1518 1518 1517 1518 1519 1519 1520 1520 1520 1520 1520 1519 1519 1518 1518 1518 1517 1516 1513 1511 1509 1509
1499 1503 1507 1510 1512 1514 1515 1515 1516 1516 1516 1516 1517 1516 1516 1516 1516 1516 1516 1515 1515 1514 1514 1513 1513 1513 1514 1514 1514 1515 1515 1514 1514 1514 1513 1513 1513 1513 1511 1509 1506 1503 1502
1498 1502 1505 1508 1510 1512 1513 1513 1514 1514 1513 1513 1513 1513 1512 1512 1512 1512 1512 1512 1511 1511 1510 1509 1508 1508 1508 1509 1509 1509 1509 1509 1508 1508 1508 1508 1507 1507 1506 1505 1504 1499 1496
1496 1500 1504 1506 1508 1510 1511 1511 1511 1511 1511 1511 1510 1510 1510 1509 1508 1508 1508 1508 1507 1506 1505 1504 1503 1503 1503 1503 1503 1503 1503 1503 1504 1503 1502 1502 1501 1500 1499 1499 1498 1498 1493
1496 1499 1502 1504 1506 1507 1508 1509 1509 1509 1509 1509 1508 1508 1507 1506 1506 1505 1505 1505 1503 1502 1501 1500 1499 1498 1498 1498 1497 1497 1497 1497 1497 1497 1496 1496 1495 1494 1493 1493 1493 1492 1491
1493 1497 1500 1502 1503 1505 1506 1506 1507 1507 1507 1506 1506 1505 1505 1504 1503 1502 1502 1501 1500 1498 1497 1496 1495 1494 1493 1493 1492 1492 1492 1491 1491 1492 1491 1490 1489 1488 1488 1488 1487 1486 1486
1491 1495 1498 1499 1501 1502 1503 1504 1505 1505 1504 1504 1504 1503 1502 1501 1500 1500 1499 1498 1497 1495 1494 1492 1491 1489 1488 1488 1487 1488 1487 1487 1487 1487 1487 1486 1486 1485 1484 1483 1483 1482 1481
1490 1493 1495 1497 1498 1499 1500 1501 1501 1502 1502 1501 1501 1501 1500 1499 1498 1497 1496 1495 1494 1493 1491 1490 1488 1487 1486 1485 1484 1484 1484 1483 1482 1482 1484 1485 1483 1481 1480 1480 1478 1477 1477
1487 1491 1493 1494 1496 1496 1497 1498 1499 1498 1499 1500 1499 1498 1498 1496 1495 1494 1493 1492 1491 1491 1489 1488 1486 1485 1484 1483 1482 1483 1482 1481 1481 1480 1481 1481 1480 1479 1478 1477 1475 1474 1474
1486 1488 1491 1493 1493 1493 1493 1495 1496 1495 1494 1496 1497 1495 1494 1493 1492 1490 1490 1489 1488 1489 1488 1487 1486 1485 1484 1483 1482 1482 1481 1479 1479 1480 1479 1479 1479 1477 1478 1477 1475 1473 1473
1484 1486 1488 1489 1490 1490 1490 1491 1493 1492 1491 1492 1493 1492 1491 1490 1489 1487 1486 1487 1487 1487 1488 1487 1486 1485 1485 1484 1484 1483 1481 1479 1480 1480 1479 1480 1480 1479 1479 1477 1475 1474 1473
1480 1483 1485 1486 1486 1486 1487 1489 1489 1489 1488 1489 1489 1489 1488 1487 1486 1485 1485 1486 1487 1487 1488 1487 1487 1487 1486 1486 1486 1483 1482 1481 1481 1480 1480 1480 1479 1479 1478 1476 1474 1472 1472
1478 1480 1481 1482 1482 1482 1484 1486 1486 1485 1485 1486 1486 1486 1486 1485 1484 1484 1486 1486 1487 1488 1488 1488 1488 1488 1489 1487 1486 1484 1483 1482 1481 1480 1481 1480 1478 1478 1477 1475 1473 1471 1470
1475 1477 1478 1479 1479 1480 1480 1481 1482 1482 1482 1482 1483 1483 1483 1483 1484 1485 1486 1487 1488 1488 1489 1489 1490 1490 1489 1488 1487 1485 1483 1482 1481 1480 1480 1479 1477 1476 1475 1473 1471 1470 1469
1473 1474 1475 1476 1476 1476 1477 1478 1480 1480 1479 1479 1480 1481 1482 1483 1484 1485 1486 1488 1489 1489 1489 1490 1490 1490 1489 1488 1486 1485 1483 1481 1480 1480 1479 1478 1476 1474 1473 1471 1469 1468 1467
1471 1472 1473 1473 1474 1474 1475 1476 1476 1477 1476 1475 1477 1479 1481 1483 1485 1486 1487 1488 1489 1490 1490 1489 1490 1489 1489 1488 1486 1484 1482 1480 1479 1479 1478 1476 1473 1472 1471 1469 1467 1466 1464
1468 1469 1470 1471 1472 1472 1473 1473 1474 1475 1475 1475 1476 1479 1480 1483 1485 1486 1488 1487 1489 1490 1490 1489 1489 1489 1488 1487 1485 1483 1480 1479 1478 1477 1475 1474 1472 1470 1468 1466 1465 1463 1462
1466 1467 1468 1469 1470 1470 1471 1472 1473 1473 1473 1474 1475 1477 1480 1482 1484 1486 1487 1488 1488 1489 1489 1488 1488 1488 1487 1485 1483 1481 1479 1477 1476 1475 1473 1471 1469 1467 1465 1464 1463 1462 1461
1465 1466 1466 1467 1468 1469 1469 1470 1470 1471 1471 1473 1474 1476 1479 1481 1482 1484 1485 1486 1487 1487 1487 1487 1487 1486 1485 1484 1483 1481 1478 1476 1475 1473 1471 1469 1467 1465 1463 1462 1461 1460 1459
1465 1464 1464 1465 1466 1467 1467 1468 1468 1468 1469 1471 1473 1475 1477 1478 1481 1482 1483 1484 1484 1485 1485 1485 1485 1484 1483 1483 1481 1479 1477 1475 1473 1471 1469 1467 1465 1463 1461 1460 1458 1457 1456
1462 1462 1462 1462 1463 1464 1464 1465 1465 1466 1467 1468 1470 1472 1474 1476 1478 1479 1480 1481 1482 1482 1483 1483 1482 1481 1481 1480 1478 1476 1475 1473 1471 1469 1467 1465 1463 1460 1459 1457 1456 1455 1454